Date,TemperatureHighF,TemperatureAvgF,TemperatureLowF,DewpointHighF,DewpointAvgF,DewpointLowF,HumidityHigh,HumidityAvg,HumidityLow,PressureMaxIn,PressureMinIn,WindSpeedMaxMPH,WindSpeedAvgMPH,GustSpeedMaxMPH,PrecipitationSumIn
2013-12-1,37,35,34,-100,-100,-100,0,0,100,0.00,40.00,0,-999,0,0.02
2013-12-2,38,33,27,-100,-100,-100,0,0,100,0.00,40.00,0,-999,0,0.03
2013-12-3,24,17,13,-100,-100,-100,0,0,100,0.00,40.00,0,-999,0,0.00
2013-12-4,15,10,3,-100,-100,-100,0,0,100,0.00,40.00,0,-999,0,0.00
2013-12-5,16,10,6,-100,-100,-100,0,0,100,0.00,40.00,0,-999,0,0.00
2013-12-6,16,7,-1,-100,-100,-100,0,0,100,0.00,40.00,0,-999,0,0.00
2013-12-7,19,12,4,-100,-100,-100,0,0,100,0.00,40.00,0,-999,0,0.00
2013-12-8,13,2,-10,-100,-100,-100,0,0,100,0.00,40.00,0,-999,0,0.00
2013-12-9,17,8,-9,-100,-100,-100,0,0,100,0.00,40.00,0,-999,0,0.01
2013-12-10,27,20,10,-100,-100,-100,0,0,100,0.00,40.00,0,-999,0,0.00
2013-12-11,27,12,1,-100,-100,-100,0,0,100,0.00,40.00,0,-999,0,0.00
2013-12-12,26,13,4,-100,-100,-100,0,0,100,0.00,40.00,0,-999,0,0.00
2013-12-13,37,29,21,-100,-100,-100,0,0,100,0.00,40.00,0,-999,0,0.00
2013-12-14,37,32,27,-100,-100,-100,0,0,100,0.00,40.00,0,-999,0,0.00
2013-12-15,34,27,20,-100,-100,-100,0,0,100,0.00,40.00,0,-999,0,0.00
2013-12-16,33,24,13,-100,-100,-100,0,0,100,0.00,40.00,0,-999,0,0.00
2013-12-17,27,17,7,-100,-100,-100,0,0,100,0.00,40.00,0,-999,0,0.00
2013-12-18,30,20,11,-100,-100,-100,0,0,100,0.00,40.00,0,-999,0,0.00
2013-12-19,30,24,10,-100,-100,-100,0,0,100,0.00,40.00,0,-999,0,0.00
2013-12-20,19,8,3,-100,-100,-100,0,0,100,0.00,40.00,0,-999,0,0.00
2013-12-21,27,20,15,-100,-100,-100,0,0,100,0.00,40.00,0,-999,0,0.01
2013-12-22,34,30,25,-100,-100,-100,0,0,100,0.00,40.00,0,-999,0,0.00
2013-12-23,36,33,31,-100,-100,-100,0,0,100,0.00,40.00,0,-999,0,0.01
2013-12-24,29,18,11,-100,-100,-100,0,0,100,0.00,40.00,0,-999,0,0.01
2013-12-25,24,8,-7,-100,-100,-100,0,0,100,0.00,40.00,0,-999,0,0.00
2013-12-26,32,16,5,-100,-100,-100,0,0,100,0.00,40.00,0,-999,0,0.01
2013-12-27,27,16,11,-100,-100,-100,0,0,100,0.00,40.00,0,-999,0,0.00
2013-12-28,31,19,12,-100,-100,-100,0,0,100,0.00,40.00,0,-999,0,0.00
2013-12-29,26,12,-2,-100,-100,-100,0,0,100,0.00,40.00,0,-999,0,0.00
2013-12-30,28,18,11,-100,-100,-100,0,0,100,0.00,40.00,0,-999,0,0.00
2013-12-31,35,31,28,-100,-100,-100,0,0,100,0.00,40.00,0,-999,0,0.00